Roswell, NM

4:03 PM MDT on May 26, 2017 (GMT -0600)
Roswell Industrial

Weather History for KROW - April, 2013

Change the Weather History Date:

Sunday, April 21, 2013

  Actual Average Record
Temperature  
Mean Temperature 65 °F 62 °F  
Max Temperature 84 °F 78 °F 99 °F (1989)
Min Temperature 46 °F 46 °F 32 °F (1907)
Degree Days  
Heating Degree Days 0 4  
Month to date heating degree days 123 134  
Since 1 July heating degree days 2894 3228  
Cooling Degree Days 0 2  
Month to date cooling degree days 34 17  
Year to date cooling degree days 36 20  
Growing Degree Days 15 (Base 50)    
Moisture  
Dew Point 15 °F    
Average Humidity 19    
Maximum Humidity 31    
Minimum Humidity 7    
Precipitation  
Precipitation 0.00 in 0.02 in 0.81 in (1905)
Month to date precipitation T 0.37  
Year to date precipitation 0.44 1.68  
Sea Level Pressure  
Sea Level Pressure 29.85 in    
Wind  
Wind Speed 8 mph (NW)    
Max Wind Speed 20 mph    
Max Gust Speed 28 mph    
Visibility 10 miles    
Events      
T = Trace of Precipitation, MM = Missing Value Source: NWS Daily Summary

Daily Weather History Graph

Daily Weather History Graph

Search for Another Location

Airport or City:

Trip Planner

Search our weather history database for the weather conditions in past years. The results will help you decide how hot, cold, wet, or windy it might be!

Date:

Astronomy

Apr. 21, 2013 Rise Set
Actual Time 6:20 AM MDT 7:33 PM MDT
Civil Twilight 5:54 AM MDT 7:59 PM MDT
Nautical Twilight 5:23 AM MDT 8:30 PM MDT
Astronomical Twilight 4:52 AM MDT 9:02 PM MDT
Moon 3:33 PM MDT (4/21) 3:30 AM MDT (4/21)
Length of Visible Light 14h 04m
Length of Day
13h 12m
Waxing Gibbous, 80% of the Moon is Illuminated
Apr 21
Waxing Gibbous
Apr 25
Full
May 2
Last Quarter
May 9
New
May 17
First Quarter

Hourly Weather History & Observations

Time (MDT) Temp. Dew Point Humidity Pressure Visibility Wind Dir Wind Speed Gust Speed Precip Events Conditions
12:51 AM 55.9 °F 21.0 °F 26% 29.84 in 10.0 mi WNW 8.1 mph - N/A   Clear
1:51 AM 54.0 °F 18.0 °F 24% 29.84 in 10.0 mi WNW 6.9 mph - N/A   Clear
2:51 AM 53.1 °F 18.0 °F 25% 29.85 in 10.0 mi WNW 6.9 mph - N/A   Clear
3:51 AM 50.0 °F 17.1 °F 27% 29.87 in 10.0 mi WNW 5.8 mph - N/A   Clear
4:51 AM 50.0 °F 19.9 °F 31% 29.88 in 10.0 mi North 6.9 mph - N/A   Clear
5:51 AM 46.9 °F 15.1 °F 28% 29.90 in 10.0 mi Calm Calm - N/A   Clear
6:51 AM 46.9 °F 18.0 °F 32% 29.92 in 10.0 mi North 5.8 mph - N/A   Clear
7:51 AM 54.0 °F 17.1 °F 23% 29.94 in 10.0 mi North 9.2 mph - N/A   Clear
8:51 AM 61.0 °F 19.9 °F 21% 29.94 in 10.0 mi North 5.8 mph - N/A   Clear
9:51 AM 64.9 °F 24.1 °F 21% 29.94 in 10.0 mi ENE 4.6 mph - N/A   Clear
10:51 AM 71.1 °F 21.9 °F 16% 29.93 in 10.0 mi NNW 4.6 mph - N/A   Clear
11:51 AM 75.9 °F 15.1 °F 10% 29.90 in 10.0 mi NW 11.5 mph 24.2 mph N/A   Clear
12:51 PM 77.0 °F 14.0 °F 9% 29.87 in 10.0 mi NNW 10.4 mph 17.3 mph N/A   Clear
1:51 PM 80.1 °F 12.0 °F 8% 29.84 in 10.0 mi NW 5.8 mph 18.4 mph N/A   Clear
2:51 PM 81.0 °F 10.9 °F 7% 29.81 in 10.0 mi Variable 5.8 mph - N/A   Clear
3:51 PM 82.0 °F 12.9 °F 7% 29.80 in 10.0 mi SE 11.5 mph - N/A   Clear
4:51 PM 82.0 °F 14.0 °F 8% 29.78 in 10.0 mi SE 17.3 mph 23.0 mph N/A   Clear
5:51 PM 81.0 °F 14.0 °F 8% 29.78 in 10.0 mi East 8.1 mph - N/A   Clear
6:51 PM 80.1 °F 14.0 °F 8% 29.79 in 10.0 mi East 5.8 mph - N/A   Clear
7:51 PM 75.0 °F 14.0 °F 10% 29.80 in 10.0 mi Calm Calm - N/A   Clear
8:51 PM 64.0 °F 8.1 °F 11% 29.82 in 10.0 mi SW 10.4 mph - N/A   Clear
9:51 PM 60.1 °F 6.1 °F 12% 29.83 in 10.0 mi South 8.1 mph - N/A   Clear
10:51 PM 62.1 °F 10.0 °F 13% 29.81 in 10.0 mi SW 10.4 mph - N/A   Clear
11:51 PM 60.1 °F 8.1 °F 13% 29.80 in 10.0 mi West 9.2 mph - N/A   Clear